GFSFLT1_con_sbcape_066.txt.gz
CAPE
0 23 0 0 0 0 0 0 1 0 4 4 2 1 0 0 0 0 1 0 13 3 0 0 0 0 0 0 0 0 0 0
1 3 0 0 0 0 0 1 1 1 1 1 3 2 1 1 0 0 0 0 0 19 0 0 2 0 0 0 0 0 0 0
3 3 0 0 0 0 0 1 1 1 1 0 0 0 0 1 0 0 0 0 0 4 11 1 13 2 0 0 0 0 0 0
0 7 0 0 0 0 0 1 1 0 0 0 0 0 1 1 1 2 0 0 0 0 6 0 4 0 0 0 0 0 0 0
0 14 0 0 0 0 0 0 0 0 0 0 1 1 2 4 0 0 2 0 0 0 0 0 2 5 0 0 0 0 0 2
0 11 0 0 0 0 0 0 0 1 2 0 1 1 1 0 1 1 1 0 0 0 0 0 0 4 0 0 0 0 0 0
0 0 0 0 0 0 0 0 0 0 8 2 1 0 0 0 0 0 0 0 0 0 0 1 0 0 0 0 0 0 0 1
0 0 0 0 0 0 0 0 1 0 1 4 0 0 0 0 0 0 0 0 0 0 0 0 0 0 0 22 11 6 7 8
0 0 0 0 0 0 0 0 0 0 1 0 0 0 0 0 0 0 0 0 0 0 0 0 0 0 0 1 66 50 14 5
0 0 0 0 0 0 0 0 0 0 0 1 0 0 0 0 0 0 0 0 0 0 0 0 0 6 17 10 2 12 25 21
17 2 0 0 0 0 0 0 0 0 0 1 0 0 0 0 0 0 0 0 0 0 2 1 0 0 3 13 23 20 13 10
3 0 0 0 0 0 0 0 0 0 0 0 1 0 0 0 0 0 0 0 0 0 0 0 1 2 0 0 9 15 8 8
0 0 0 0 0 0 0 0 0 0 0 0 0 0 2 2 0 0 0 0 0 0 0 0 0 0 0 0 0 0 6 10
0 0 0 0 0 0 0 0 0 0 0 0 0 0 0 0 0 0 0 0 0 0 0 0 0 0 0 0 0 0 0 0
0 0 0 0 0 0 0 0 0 0 0 0 0 0 0 0 0 0 0 0 0 0 0 0 0 0 0 0 0 0 0 0
0 0 0 0 0 0 0 0 0 0 0 0 0 0 0 0 0 0 0 0 0 0 0 0 0 0 0 0 0 0 0 0
0 0 0 0 0 0 0 0 0 0 0 0 0 0 0 0 0 0 0 0 0 0 1 1 1 0 0 0 0 0 0 0
0 0 0 0 0 0 0 0 0 0 0 0 0 0 0 1 1 0 0 0 0 0 1 1 0 0 0 0 0 0 0 0
0 0 0 0 0 0 0 0 0 0 0 0 0 0 2 1 0 0 0 0 0 0 0 0 0 0 0 0 0 0 0 0

GFSFLT1_con_sbcape_069.txt.gz
CAPE
0 11 5 0 0 0 0 0 1 1 3 1 1 1 1 0 0 0 0 7 0 0 0 0 0 0 0 0 0 0 0 0
0 7 0 0 0 0 1 0 2 1 2 3 1 1 1 0 0 0 0 12 0 0 0 0 0 0 0 0 0 0 0 0
12 10 0 0 0 0 0 0 2 1 2 2 5 4 1 0 0 0 0 0 6 0 0 0 0 0 0 0 0 0 0 0
20 12 2 1 0 0 0 0 0 1 0 0 0 0 1 1 1 1 0 0 0 2 0 0 0 0 2 0 0 0 0 0
7 15 3 0 0 0 0 1 0 0 0 0 0 0 0 0 1 1 2 0 0 0 5 0 0 12 11 3 0 0 0 0
1 20 17 0 0 0 1 0 0 0 0 0 0 0 0 0 0 1 2 1 0 0 0 0 0 14 16 10 1 0 1 1
0 24 7 0 0 0 0 0 0 0 0 0 0 0 0 2 5 3 3 1 0 0 0 0 0 4 2 2 2 0 0 4
0 1 3 0 1 0 0 0 0 0 0 0 0 0 0 5 0 2 1 1 0 0 0 0 0 0 6 0 0 0 0 0
0 1 5 0 0 0 0 0 0 0 0 0 0 0 0 0 1 0 0 0 0 0 0 0 0 0 0 3 0 0 0 0
0 1 3 0 0 0 0 0 1 0 0 0 0 0 0 0 0 0 0 0 0 0 0 0 0 0 0 0 0 1 0 0
0 0 1 0 0 0 0 0 1 0 0 0 0 0 0 0 0 0 0 0 0 0 0 0 0 0 0 0 0 0 0 0
0 0 0 0 0 1 1 0 1 1 0 0 0 0 0 0 0 0 0 0 0 0 0 0 0 0 0 0 0 0 0 4
0 0 0 0 0 0 0 0 0 0 0 1 0 0 0 0 0 0 0 0 0 0 0 0 1 0 0 0 4 14 18 11
0 0 0 0 0 2 0 0 0 0 0 0 0 0 0 0 0 0 0 0 0 0 0 0 0 0 0 0 0 0 2 7
0 0 0 0 0 0 0 0 0 0 0 0 0 0 0 0 0 0 0 0 0 0 0 0 0 0 0 0 0 0 0 0
0 0 0 0 0 0 0 0 0 0 0 0 0 0 0 0 0 0 0 0 0 0 0 0 0 0 0 0 0 0 0 0
0 0 0 0 0 0 0 0 0 0 0 0 0 0 0 1 2 1 0 0 0 0 0 0 0 0 0 0 0 0 0 0
0 0 0 0 0 0 0 0 0 0 0 0 0 0 0 0 0 0 2 1 0 1 0 0 0 0 0 0 0 0 0 0
0 0 0 0 0 0 0 0 0 0 0 0 0 0 0 0 0 0 0 3 1 5 2 0 0 0 0 0 0 0 0 0

GFSFLT1_con_sbcape_075.txt.gz
CAPE
318 360 316 355 414 340 84 78 30 6 7 10 14 19 13 19 10 3 2 18 50 28 8 2 1 1 0 0 0 0 8 0
35 282 338 377 314 100 50 64 32 6 3 13 12 5 7 2 24 44 3 6 70 1 0 0 0 0 0 0 0 0 0 0
28 280 343 329 167 124 59 92 59 62 10 2 4 5 4 2 18 6 81 24 5 0 0 0 0 16 0 0 0 0 2 1
0 214 313 341 161 140 37 44 90 50 18 18 5 8 6 5 2 3 6 2 2 0 1 0 0 0 0 0 0 0 0 1
0 119 225 307 278 164 17 7 27 30 15 8 5 5 13 8 3 1 3 3 3 1 0 0 0 0 0 0 0 0 0 0
0 61 194 260 203 62 2 1 6 12 16 5 6 10 28 8 6 3 2 3 1 2 1 0 0 0 0 0 0 0 3 30
0 40 120 177 123 7 1 1 4 10 14 14 21 18 1 4 6 18 9 2 3 1 1 0 0 0 0 0 0 0 7 23
8 90 108 126 75 3 3 0 2 3 16 17 7 3 1 2 6 9 6 2 1 2 1 1 1 0 0 0 0 0 2 8
1 119 128 106 26 2 0 3 2 2 2 9 4 0 0 1 1 2 12 12 2 0 2 0 1 1 0 0 0 0 0 3
0 71 104 95 2 2 1 1 1 2 2 1 4 0 0 0 4 16 30 30 16 2 1 1 2 1 0 0 0 0 0 1
0 52 44 39 3 1 3 1 3 1 1 7 6 4 3 1 6 6 13 24 24 13 23 2 0 0 1 1 0 0 0 4
4 6 24 4 4 6 4 1 3 3 2 2 11 8 5 4 0 0 1 1 0 0 2 3 2 3 2 1 1 0 2 0
1 8 5 6 7 4 4 2 1 3 1 2 1 10 10 8 11 8 9 3 0 0 0 3 11 6 16 13 7 1 0 0
0 1 2 2 2 2 1 1 3 6 2 0 0 2 4 2 8 4 4 3 2 0 0 0 1 2 6 4 7 18 11 6
1 1 1 1 2 1 0 1 1 1 3 1 2 2 0 0 3 5 3 2 3 3 4 5 2 0 0 0 0 10 18 16
0 0 1 0 1 4 3 1 0 0 0 0 0 0 0 0 0 1 2 0 0 0 1 1 2 3 2 2 0 0 2 13
0 0 0 0 0 0 0 0 0 0 0 0 0 0 0 0 0 0 0 0 0 0 1 0 0 0 0 0 0 3 0 5
0 0 0 0 0 0 0 0 0 0 0 0 0 0 0 0 0 0 0 1 1 3 3 1 2 0 1 0 0 0 0 0
0 0 0 0 0 0 0 0 0 0 0 0 0 0 0 0 0 1 2 3 5 2 2 0 1 0 2 1 0 0 0 2

GFSFLT1_con_sbcape_078.txt.gz
CAPE
0 168 843 1300 1516 1752 1470 840 851 652 440 127 31 137 55 16 8 15 17 28 92 75 161 18 20 1 1 125 194 173 180 165
0 113 848 1270 1569 1699 1396 810 710 492 293 61 44 170 81 34 26 21 23 12 4 96 35 3 9 0 0 30 172 175 150 150
0 161 892 1267 1508 1586 1278 926 512 392 264 13 25 16 50 107 75 59 85 185 90 4 3 4 1 1 0 97 169 154 148 134
0 128 827 1164 1443 1516 1187 931 849 518 441 184 317 38 44 52 41 38 53 221 25 7 4 4 2 2 2 75 150 166 110 124
0 5 533 994 1265 1394 1165 1009 576 645 441 207 158 28 11 43 23 5 32 20 4 1 1 2 2 13 8 54 90 163 147 112
1 6 162 693 1139 1305 1210 981 514 519 290 133 116 31 24 54 17 11 15 9 6 1 2 2 2 4 90 161 118 138 117 109
0 0 209 600 1045 1214 975 719 341 392 305 150 62 12 34 111 23 30 8 5 5 5 3 2 0 0 51 76 26 38 80 81
1 139 337 670 1039 633 395 560 189 149 179 81 70 66 66 35 64 14 21 10 5 2 2 4 0 0 2 13 22 20 32 64
0 282 397 612 861 107 127 313 41 50 80 51 69 39 13 17 50 91 78 35 43 46 2 1 2 0 0 0 0 2 14 25
64 137 535 632 708 26 93 76 5 3 5 17 88 56 41 28 26 8 4 19 29 21 3 5 3 0 0 0 0 0 0 0
92 269 449 594 218 30 99 48 4 3 3 10 6 30 35 18 12 16 29 31 41 54 22 2 2 2 4 1 0 0 0 0
136 206 229 131 20 33 24 28 13 10 7 3 6 4 22 15 17 8 8 15 33 9 37 34 10 4 3 4 3 0 0 0
2 0 10 10 23 14 24 16 20 14 7 3 5 11 26 34 25 12 17 28 28 36 31 26 10 2 2 3 2 3 3 0
1 0 2 2 2 1 0 7 6 6 5 7 6 7 6 6 23 30 33 28 13 19 21 16 18 18 18 15 20 30 47 29
1 0 2 2 2 1 2 1 4 3 6 0 1 2 6 8 9 22 25 27 28 15 6 6 13 16 14 46 55 64 51 44
1 1 1 1 1 1 2 0 2 1 0 0 0 0 0 0 1 0 1 9 10 33 35 30 33 2 0 0 10 38 40 42
2 1 1 1 0 1 0 1 0 0 0 0 0 0 0 0 0 0 1 1 2 0 0 0 0 0 0 0 0 0 0 12
1 1 1 1 0 0 0 0 0 0 0 0 0 0 0 0 0 0 1 4 1 2 2 1 0 0 1 0 0 0 0 1
2 3 1 0 0 0 0 0 0 0 0 0 0 0 0 0 1 2 3 1 1 1 1 1 0 2 1 0 0 0 1 2

GFSFLT1_con_sbcape_081.txt.gz
CAPE
0 0 12 234 1065 1817 2221 1982 1856 1654 1234 676 737 379 259 261 201 216 432 426 163 334 109 16 36 28 45 38 75 188 146 119
0 0 10 518 1369 1949 2211 1947 1772 1463 1125 888 656 688 414 272 161 74 84 169 344 353 50 9 6 33 5 26 58 143 137 106
0 0 5 835 1484 1942 2125 1805 1610 1334 1041 717 494 460 575 421 290 187 48 61 186 33 47 4 13 15 2 1 57 92 153 113
0 0 15 982 1390 1970 2029 1751 1448 1184 937 658 432 174 295 164 298 372 143 269 242 192 14 7 18 1 0 1 32 78 104 106
0 0 37 890 1318 1787 1955 1747 1430 1183 946 611 454 346 107 312 223 251 200 146 255 142 13 4 6 1 1 0 47 76 89 116
0 0 0 661 1254 1739 1890 1693 1464 1181 1030 848 534 298 285 274 130 149 48 30 6 2 1 3 3 2 1 0 43 80 114 120
0 0 0 407 1095 1856 1790 1688 1463 1239 1187 791 471 300 266 325 158 126 18 15 6 2 1 3 5 5 2 0 43 107 141 162
9 0 20 178 974 1644 1725 1641 1198 1256 1047 700 383 287 323 95 210 107 19 3 5 3 1 2 1 2 18 26 58 103 138 148
408 66 110 460 984 1508 1579 1519 990 1123 1016 679 347 280 270 292 237 93 49 14 7 3 3 2 1 1 0 24 98 128 123 171
623 205 556 723 1219 1288 1166 1171 507 793 846 595 261 236 90 102 90 121 182 116 44 14 3 1 1 0 0 0 3 39 105 101
6 430 721 886 1158 578 416 643 277 381 623 424 156 144 53 108 100 37 10 17 28 60 30 4 1 0 0 0 0 0 0 4
4 45 786 853 328 183 303 199 216 159 113 127 28 48 46 66 56 33 16 44 42 47 67 35 5 3 1 0 0 0 0 0
3 4 0 63 70 89 91 176 45 8 24 41 27 16 12 27 22 24 29 28 26 37 35 46 16 6 3 4 2 0 0 0
2 2 2 2 2 2 1 27 35 11 23 12 11 15 36 17 7 8 8 9 3 15 33 41 35 20 15 5 3 7 5 0
2 3 3 2 3 1 1 1 0 2 4 0 4 2 19 19 11 35 31 22 5 2 6 18 18 9 6 7 10 7 7 8
2 4 4 1 1 1 1 1 0 1 1 0 0 0 0 0 0 0 1 0 0 0 3 0 0 0 0 0 0 1 50 66
1 3 2 2 1 1 1 1 0 0 0 0 0 0 0 0 1 3 1 1 0 0 0 0 0 0 1 0 0 0 0 0
1 4 2 2 1 1 3 0 3 0 0 0 0 0 0 1 2 1 2 3 1 2 3 0 0 0 1 0 0 0 0 0
1 1 0 1 0 0 0 0 0 0 0 0 0 0 2 3 2 1 2 2 2 2 3 2 1 1 0 0 0 1 1 1

GFSFLT1_con_sbcape_084.txt.gz
CAPE
0 0 0 0 2 1446 2542 2266 1919 1943 1575 936 752 793 937 918 683 541 595 521 373 344 117 61 21 40 35 43 29 15 42 9
0 0 0 6 589 1879 2573 2124 1786 1802 1045 811 741 527 547 398 312 195 366 341 321 146 69 27 24 31 39 28 14 37 43 18
0 0 2 350 1412 1824 2560 2098 1943 1777 1196 890 850 624 541 262 199 136 213 208 229 112 44 5 8 18 22 10 18 35 18 41
0 0 0 646 1556 2007 2416 1998 1971 1656 1247 1007 750 644 525 219 189 248 138 83 72 138 75 2 2 4 6 13 8 21 39 36
0 0 0 744 1242 2171 2282 2041 1819 1651 1304 936 636 400 395 215 108 232 185 167 131 123 7 1 1 13 4 4 7 22 33 22
1 4 13 813 1183 2153 2274 1992 1682 1461 1301 924 645 422 326 174 197 201 90 25 120 120 0 3 2 1 0 2 6 11 24 20
0 2 2 410 1044 2032 2257 1916 1584 1386 1300 926 802 502 291 201 129 52 52 2 1 6 4 1 4 3 1 0 9 20 29 31
271 307 20 71 1140 1892 2211 1911 1593 1464 1278 1223 805 735 349 274 129 78 10 2 3 5 2 2 2 1 1 0 8 18 27 25
1 21 2 207 1387 2040 1967 1832 1541 1431 1378 1088 767 497 232 229 206 65 5 2 1 3 1 1 1 2 1 3 10 16 10 11
0 0 0 393 1404 1938 1839 1722 1346 1378 1261 936 616 377 218 241 140 56 31 1 5 2 1 0 0 0 8 3 2 11 14 20
0 1 1 1230 1586 1405 1198 1208 967 1031 1018 859 490 275 126 126 116 169 69 23 1 2 3 0 0 0 0 0 0 6 24 29
0 3 3 6 596 666 428 437 436 540 575 360 281 112 78 161 163 74 13 40 28 14 5 2 1 0 0 0 0 0 0 1
0 1 3 6 4 14 164 160 193 148 235 122 95 83 86 91 45 18 19 16 16 13 21 8 1 1 0 0 0 0 0 0
0 0 2 3 2 3 1 1 47 27 37 61 46 31 28 36 22 15 25 13 12 3 7 7 14 3 1 1 0 0 0 0
0 1 2 2 3 2 1 3 0 0 0 0 1 1 0 0 1 8 22 12 8 4 9 0 0 0 0 0 1 2 2 0
1 1 3 3 2 2 2 2 1 0 1 2 5 2 0 0 0 0 0 0 0 0 0 0 0 0 0 0 0 0 5 2
2 2 0 3 1 4 4 3 1 0 0 1 1 0 1 1 1 1 0 1 1 0 0 0 0 0 0 0 0 0 0 0
9 5 4 2 3 3 3 3 1 1 0 1 1 2 1 1 0 1 1 1 1 1 1 0 1 0 0 0 0 0 0 0
12 15 6 1 1 1 2 2 1 1 1 0 3 2 4 4 2 2 2 1 2 3 1 1 0 0 0 0 0 0 1 1

GFSFLT1_con_sbcape_087.txt.gz
CAPE
0 0 0 0 0 675 1948 1675 1457 949 992 553 370 585 826 530 556 725 832 482 324 32 9 9 0 1 0 0 2 10 46 19
0 0 0 0 0 1643 1872 1649 1499 1003 720 507 337 374 666 475 377 448 450 276 159 0 11 22 0 0 8 3 27 25 39 4
0 0 0 0 20 1893 1914 1736 1481 771 603 417 234 245 426 273 220 287 375 169 56 8 22 3 2 3 16 19 7 17 17 13
0 0 0 0 907 1930 1677 1563 1410 733 437 363 266 229 280 223 183 125 197 199 72 34 1 1 1 3 4 14 8 8 21 29
0 0 0 270 1926 1945 1579 1450 1375 665 484 412 443 469 406 251 183 161 46 43 97 55 41 1 1 4 13 5 0 0 9 13
0 0 0 185 1564 1935 1569 1487 1339 831 549 379 378 346 242 86 99 125 53 8 11 1 0 4 7 11 14 25 2 4 5 1
0 0 0 4 1329 1804 1554 1435 1357 852 526 440 419 296 245 138 79 51 6 0 1 1 0 1 15 14 11 18 4 0 0 5
0 0 0 0 0 1518 1432 1295 1160 898 542 510 420 288 117 88 65 61 6 0 0 0 0 1 1 5 2 7 2 3 0 0
0 0 0 0 0 1236 1407 1096 1003 861 642 561 529 249 101 100 95 46 1 0 0 0 1 2 1 0 1 0 3 4 5 3
0 0 0 0 304 1152 1151 1036 980 896 801 755 439 106 106 68 48 21 0 0 0 0 3 1 1 1 1 0 1 1 1 2
0 0 1 4 1 20 183 760 861 859 812 519 238 96 101 99 111 73 0 0 1 1 1 0 1 0 1 1 0 0 6 1
0 0 1 4 4 2 0 11 171 711 541 287 112 102 105 133 112 82 42 1 0 2 1 0 0 0 1 4 2 2 1 0
0 0 1 1 5 3 5 3 39 75 85 51 28 45 122 117 74 7 16 11 4 1 2 0 1 0 1 0 1 0 0 0
1 0 0 2 5 1 1 3 1 12 1 0 1 21 52 48 18 7 4 5 4 8 4 2 2 0 0 1 0 0 0 0
1 1 1 1 2 2 2 1 2 1 0 1 0 2 0 0 0 0 1 1 0 0 0 0 0 0 0 0 0 0 0 0
3 2 2 1 1 2 1 1 2 0 1 0 2 5 3 0 0 0 0 0 0 0 0 0 0 0 0 0 0 1 2 1
5 3 2 2 1 2 2 2 1 1 1 2 1 1 1 2 1 1 0 0 0 0 1 0 0 0 0 0 0 0 0 0
7 6 7 3 2 1 2 2 1 1 2 2 3 2 0 1 1 1 1 1 0 1 1 1 0 1 0 0 0 0 0 1
7 10 11 11 5 1 0 1 1 1 2 6 4 3 2 2 1 2 2 2 1 1 1 1 0 2 1 1 0 0 1 1

GFSFLT1_con_sbcape_090.txt.gz
CAPE
0 0 0 0 0 85 2124 2140 2016 1688 1162 794 554 579 477 486 272 515 358 371 237 239 199 62 143 106 5 2 0 0 9 30
0 0 0 0 0 608 1761 2030 1690 1434 1073 689 529 731 511 277 220 230 342 335 268 150 6 25 158 11 0 0 0 0 9 41
0 0 0 0 0 386 1828 1829 1390 1490 1109 827 554 272 383 452 144 183 199 172 86 63 41 29 29 0 2 2 0 0 6 29
0 0 0 0 0 1295 1710 1658 1375 1252 801 92 69 23 72 164 246 163 158 113 30 36 62 50 1 1 2 2 0 0 19 1
0 0 0 0 0 1045 1674 1674 1413 818 320 276 213 240 196 254 334 124 113 127 21 11 34 13 0 2 1 1 1 4 27 1
0 0 0 0 455 1417 1672 1640 1076 560 559 247 171 144 117 158 174 149 48 2 34 27 19 6 1 0 0 4 6 0 4 1
0 0 0 0 0 1561 1591 1496 938 598 446 239 208 184 134 182 191 171 82 36 22 14 38 27 1 0 6 17 16 1 5 0
0 0 0 0 0 0 1437 1263 757 587 329 228 199 243 188 194 117 98 90 43 32 42 8 11 10 2 5 34 29 17 5 0
0 2 0 1 1 18 1383 1085 625 341 208 172 185 165 156 132 115 123 21 0 1 0 1 1 3 0 6 24 45 24 2 0
0 1 1 1 2 0 672 995 645 298 249 196 159 152 68 96 57 49 10 0 0 0 0 0 1 0 1 4 9 1 1 1
0 0 2 5 5 5 1 196 511 338 266 303 207 179 74 93 39 25 7 0 0 0 1 2 2 1 0 1 4 1 1 1
0 1 3 9 7 4 5 1 209 262 232 154 111 130 141 121 69 35 6 0 0 0 1 1 1 1 1 1 1 1 1 1
1 1 1 6 3 7 4 3 2 2 17 28 61 133 132 128 116 68 2 0 0 1 1 1 1 1 1 1 1 1 0 1
1 0 1 1 2 4 7 4 4 1 3 4 17 34 85 63 43 61 41 10 3 4 0 1 1 0 1 1 1 5 1 1
1 2 2 1 1 1 1 8 8 3 5 0 0 0 0 0 0 0 0 0 0 0 0 0 0 0 0 1 0 1 1 1
7 3 3 3 2 1 1 1 8 5 3 3 3 0 0 0 0 0 0 0 0 0 0 0 0 0 0 0 0 0 0 1
6 6 6 4 4 2 1 2 1 2 4 6 9 5 2 0 0 0 0 0 0 0 0 1 1 0 0 0 0 0 0 0
7 6 5 6 4 4 2 1 1 1 6 13 3 2 3 2 0 0 0 1 1 1 1 1 1 1 0 0 0 0 0 0
9 6 3 3 2 2 2 2 1 1 2 5 8 4 4 3 2 2 1 1 1 1 1 2 2 4 1 1 0 0 0 0

GFSFLT1_con_sbcape_093.txt.gz
CAPE
0 0 0 0 0 0 652 2182 2234 2189 1608 1211 870 606 529 722 679 639 528 384 187 148 45 7 3 1 22 7 1 2 0 1
0 0 0 0 0 0 84 1950 2132 2055 1550 1359 1198 1201 771 610 553 544 438 397 259 236 124 41 0 16 6 12 3 1 0 3
0 0 0 0 0 0 25 1671 2001 1975 1730 1535 1243 1387 832 658 407 401 420 247 197 223 117 62 77 100 57 1 0 1 0 0
0 0 0 0 0 0 653 1486 1901 1923 1709 823 208 179 120 123 241 348 215 152 133 192 64 178 106 21 11 0 0 1 0 12
0 0 0 0 0 0 652 1571 1783 1816 1386 770 517 776 729 769 769 510 172 91 101 95 55 138 124 13 0 0 1 1 0 3
0 0 0 0 0 0 464 1644 1657 1636 1071 876 555 540 349 98 229 194 146 75 93 173 186 129 19 0 0 1 4 1 0 0
0 0 0 0 0 0 621 1522 1510 1265 879 543 613 266 85 104 110 111 84 60 117 133 56 54 24 2 1 0 0 0 5 3
0 0 0 1 1 1 81 1682 1492 883 805 377 276 108 98 65 68 127 104 105 59 50 120 51 10 12 2 0 2 6 5 1
0 0 1 2 2 2 3 1582 1174 851 546 319 153 77 70 55 55 83 123 134 127 34 1 6 27 12 13 15 11 17 12 15
0 0 4 4 4 5 2 629 802 717 356 185 33 33 23 17 31 109 129 53 22 0 8 5 2 14 13 7 34 28 22 10
0 0 1 5 5 6 3 3 640 396 241 63 47 28 10 3 28 31 10 0 0 0 0 0 1 0 1 1 8 16 48 14
0 0 2 6 6 4 5 3 147 212 163 62 15 6 6 2 16 0 0 0 0 0 0 0 0 1 1 1 1 1 2 1
1 1 1 4 7 10 7 3 4 2 100 8 0 1 6 11 0 0 0 0 0 0 0 1 1 0 1 0 0 3 4 1
3 1 1 2 4 10 6 5 4 5 3 16 1 21 31 48 48 10 6 0 0 0 0 1 1 2 1 1 1 0 1 0
5 3 3 2 3 3 2 1 2 2 2 1 7 9 0 0 0 0 0 0 0 0 0 0 0 0 1 0 1 1 1 1
5 5 3 3 3 2 2 2 1 4 3 1 1 5 3 0 0 0 0 0 0 0 0 0 0 0 0 0 0 1 0 0
6 4 5 4 4 3 3 3 2 3 4 4 2 2 7 0 0 0 0 0 0 0 0 0 0 0 0 1 0 0 0 0
8 7 7 6 4 3 3 3 2 2 2 2 3 4 3 2 1 1 0 1 0 1 1 1 1 1 0 0 0 0 0 0
8 6 4 4 4 2 2 2 2 2 2 3 3 2 0 1 3 1 2 1 1 1 1 1 1 4 2 1 0 0 0 0

GFSFLT1_con_sbcape_096.txt.gz
CAPE
0 0 0 0 0 0 0 266 1722 1995 1954 1664 1467 1202 1105 993 643 650 457 232 63 65 57 19 14 4 4 2 2 1 8 15
0 0 0 0 0 0 0 13 1553 2045 2215 1775 1524 1354 1318 1217 893 718 583 348 203 208 115 15 12 18 1 0 6 7 2 11
0 0 0 0 0 0 0 0 885 2007 2026 1955 1684 1645 1360 1302 1029 757 714 477 327 301 193 87 13 1 2 18 20 12 7 23
0 0 0 0 0 0 0 0 266 1790 1980 1940 813 990 684 609 701 541 376 424 277 254 182 100 76 42 35 30 19 2 16 24
0 0 0 0 0 0 0 0 0 1703 1947 1848 1499 1535 1253 1072 794 517 218 178 260 212 152 115 56 113 131 37 7 0 0 1
0 0 0 0 0 0 0 0 5 1489 1900 1673 1346 1387 1221 876 776 1 185 148 58 155 131 68 143 111 81 28 4 1 0 2
0 0 0 0 0 0 0 0 336 1563 1760 1459 1058 1166 388 737 711 423 307 108 110 161 185 142 87 53 45 10 4 3 2 4
0 0 0 1 1 1 2 2 163 1550 1503 1298 904 768 308 492 578 466 265 250 200 177 118 60 39 19 35 4 4 2 5 5
0 0 0 2 3 2 3 3 2 1342 1206 1118 757 155 193 210 191 158 182 214 214 122 61 50 2 17 27 6 1 1 2 6
0 0 1 1 4 10 4 4 2 820 842 515 217 130 77 42 5 2 22 120 42 14 10 22 94 41 19 16 16 6 3 1
0 0 1 2 5 5 5 6 4 611 493 339 183 120 30 0 0 0 13 32 6 4 0 8 59 51 22 15 16 18 12 20
0 0 2 2 4 10 4 10 10 6 253 223 120 33 2 0 0 1 0 0 0 0 0 1 0 0 0 0 1 3 12 26
0 0 1 2 3 4 5 4 14 6 1 110 64 13 0 0 0 0 0 0 0 0 0 0 0 0 1 1 1 1 1 1
0 0 1 2 2 3 6 8 13 10 4 3 29 21 2 1 0 0 0 0 0 0 0 0 0 2 0 1 0 0 0 0
0 0 2 2 3 4 4 5 5 3 5 5 4 2 8 6 1 1 1 0 0 0 0 0 0 0 0 1 1 1 1 1
3 3 3 3 3 3 3 4 4 4 1 1 3 3 1 2 1 0 0 0 0 0 0 0 0 0 0 0 0 1 0 0
5 3 3 4 5 4 3 3 3 4 3 3 2 2 1 1 3 0 0 0 0 0 0 0 0 0 0 1 0 0 0 0
6 5 6 5 4 5 4 3 2 2 2 3 4 2 2 1 1 1 0 1 0 0 1 1 1 1 0 0 0 0 0 0
7 6 4 3 3 2 2 3 2 2 2 0 2 2 1 0 0 1 5 1 1 1 1 1 1 3 1 0 0 0 0 0

GFSFLT1_con_sbcape_099.txt.gz
CAPE
0 0 0 0 0 0 0 0 0 257 1838 1998 2023 1745 1763 1754 1430 1123 1143 1195 645 545 404 428 572 372 160 61 4 12 102 130
0 0 0 0 0 0 0 0 0 0 1807 1843 1485 1379 1547 1635 1601 1260 1212 1019 592 372 249 259 330 334 175 106 11 13 30 86
0 0 0 0 0 0 0 0 0 0 527 1860 1870 1472 1592 1826 1604 1273 1218 930 572 301 261 234 246 207 183 152 60 8 30 75
0 0 0 0 0 0 0 0 0 0 6 1657 2001 1804 1811 1484 1559 1316 1250 1036 592 426 393 354 248 239 159 169 138 28 20 79
0 0 0 0 0 0 0 1 2 0 1 1186 1846 1508 1356 1706 1810 1450 1245 741 446 318 377 433 263 219 184 244 165 77 73 62
0 0 0 0 0 0 0 0 0 1 21 872 2113 1716 1990 2033 1890 1312 1009 976 448 66 0 134 239 250 268 302 110 91 67 71
0 0 0 0 0 0 1 2 2 0 55 953 1918 1802 1840 1843 1538 1324 1410 840 109 20 57 217 220 200 316 393 208 111 89 78
0 0 0 1 0 2 6 7 4 1 4 1438 1798 1708 1683 1749 1559 1332 1009 665 181 135 331 199 194 303 272 383 148 246 83 83
0 0 3 1 2 3 6 9 5 6 1 1571 1541 1241 1232 1570 1505 883 781 592 538 361 283 365 324 291 152 137 111 108 143 41
0 0 2 2 4 5 7 12 5 5 2 1396 1290 684 553 635 1290 1132 876 552 368 186 277 161 126 87 118 155 98 151 110 84
0 0 2 1 6 5 5 7 12 6 5 883 519 503 441 277 339 231 203 158 16 50 110 99 70 89 199 220 99 62 73 87
0 0 1 3 3 5 5 7 11 17 5 190 396 325 108 89 109 178 132 40 0 30 31 50 116 202 224 134 118 69 59 59
3 0 1 3 4 4 3 7 10 23 11 8 84 126 115 136 110 116 86 5 0 8 9 26 24 67 15 23 3 1 15 6
3 0 1 4 5 4 5 10 7 16 11 5 3 1 14 86 69 7 2 1 1 2 4 7 3 0 0 0 3 6 13 9
3 0 2 5 5 4 3 6 5 8 7 6 3 7 5 3 11 2 3 3 4 8 2 0 0 0 0 3 2 2 8 19
3 3 4 4 4 3 4 3 2 6 5 5 5 2 1 2 1 1 2 0 0 0 0 0 0 0 0 0 0 2 7 1
4 3 2 4 3 4 4 5 4 4 2 2 6 4 2 1 2 0 1 1 1 0 0 0 0 0 0 1 0 0 0 0
6 5 6 4 5 4 4 4 5 2 3 3 3 4 3 2 0 1 0 2 0 1 1 1 2 2 0 0 0 0 1 1
7 6 6 5 4 3 2 3 5 3 3 4 3 4 2 2 0 0 0 0 1 1 2 2 2 3 1 0 0 1 1 1

GFSFLT1_con_sbcape_102.txt.gz
CAPE
0 0 0 0 0 0 0 0 0 0 0 60 1119 1461 2335 2335 2169 1950 2040 2386 2164 2036 1879 1605 1429 1219 1421 1156 825 512 573 576
0 0 0 0 0 0 0 0 0 0 0 0 567 1306 1934 1952 2259 2235 2087 2109 2123 1880 1729 1349 1183 1157 1143 919 608 361 454 570
0 0 0 0 0 0 0 0 0 0 0 0 18 1027 1303 1596 1988 2631 2154 2087 2169 1831 1490 1137 1109 1124 983 1027 758 205 384 473
0 0 0 0 0 0 0 2 2 1 4 1 0 726 1507 1762 1929 2402 2342 2214 1961 1702 1311 947 976 1002 1129 1141 775 424 256 244
0 0 0 0 0 0 0 0 0 0 5 8 6 159 1481 1703 1817 2146 2144 1834 1620 1438 1070 809 720 897 955 1081 815 701 498 246
0 0 0 0 0 0 0 0 1 1 1 4 20 156 1833 1742 1921 1988 1811 1664 1432 1349 919 855 198 792 859 1040 1074 1132 908 382
0 0 0 0 0 1 1 0 1 2 4 5 8 481 1061 1979 1912 1850 1678 1482 1363 1281 1152 1180 809 661 705 589 800 1036 862 619
0 0 0 0 1 3 2 1 2 2 2 4 7 507 880 2249 1940 2074 1535 1348 1357 1348 1312 564 554 633 711 575 649 1124 861 607
0 0 0 2 3 6 3 2 4 5 7 9 10 1013 1388 2413 1999 1944 1644 1559 1647 1739 885 290 201 357 580 656 653 1220 972 926
0 0 2 5 3 5 7 6 6 7 11 10 6 2023 2095 2080 1829 1720 1593 2247 1904 1107 577 374 270 302 625 527 1027 1049 537 290
0 0 4 10 5 9 7 7 10 8 10 12 7 1455 1586 1586 1678 1784 1193 1701 1210 965 642 636 461 378 527 623 766 436 220 300
0 2 5 9 5 7 6 5 7 9 8 16 6 858 1182 1253 1328 1081 831 944 981 705 506 264 144 220 303 268 245 349 430 174
2 2 1 5 5 4 4 7 6 10 10 12 17 8 17 354 387 401 567 462 619 632 503 157 122 237 178 261 345 298 367 230
2 2 3 5 5 3 1 5 5 5 9 14 9 6 10 4 78 185 242 348 377 212 211 168 134 304 278 138 261 217 271 205
4 3 5 5 5 5 3 4 2 2 4 8 10 18 12 9 4 2 54 87 166 162 221 98 58 24 46 11 14 10 22 150
6 5 3 4 3 4 3 2 6 11 4 1 8 7 4 3 2 3 3 3 17 11 0 0 0 0 0 0 0 14 15 7
6 7 4 9 5 6 3 5 7 7 4 7 4 4 8 7 2 1 2 2 1 0 1 0 0 0 0 1 0 1 0 0
10 10 12 10 9 9 9 10 7 4 4 6 2 1 3 4 3 0 0 1 1 3 2 1 1 2 0 0 0 0 0 1
8 12 12 10 8 7 6 4 5 7 5 4 5 4 3 2 4 2 0 0 0 0 1 2 2 3 0 0 0 1 2 2

GFSFLT1_con_sbcape_105.txt.gz
CAPE
1 0 0 0 0 0 0 0 0 0 0 0 0 113 1779 2181 2167 2759 2924 2867 2838 2932 2324 2359 2242 1806 2132 1653 1517 1611 1514 1623
0 0 0 0 0 0 0 0 0 0 0 0 0 0 507 1539 1905 2363 2997 2824 2983 2687 2383 2443 2197 1651 2033 1542 1454 1495 1283 1315
0 0 0 0 0 0 0 0 0 0 0 0 0 3 18 663 1683 2160 2644 2607 2678 2183 2308 2283 2157 1791 2059 1542 1432 1262 1190 975
0 0 0 0 0 0 0 0 0 0 2 1 0 0 17 218 1840 1971 2256 2785 2723 2176 2345 2381 2012 1849 1734 1505 1407 1047 916 810
0 0 0 0 0 0 0 0 0 0 3 5 7 6 0 14 1043 1675 2158 2448 2248 2326 2493 2006 1780 1810 1652 1509 1380 1224 1240 691
0 0 0 0 0 0 1 2 2 4 6 6 6 9 12 125 535 1823 2330 2565 2300 2347 2437 1943 1610 1504 1491 1311 1237 1359 1450 985
0 0 0 0 0 4 8 6 3 6 3 4 6 9 11 36 617 1616 2261 2636 2138 2064 1842 1717 1588 1802 1397 1277 1427 1672 1675 1362
0 0 0 0 0 3 6 6 5 3 3 4 8 13 13 16 253 1206 2242 2406 1923 1646 1621 1372 1633 1448 484 244 573 1215 1555 1399
0 0 0 0 0 5 7 6 4 2 6 6 10 9 14 14 176 1176 1856 2225 2021 1433 1461 1314 1377 1273 912 1103 1442 1557 1340 1147
0 0 0 1 2 6 9 4 6 3 8 7 9 8 10 140 1174 1749 2109 2270 1928 1506 1433 1331 1289 1296 1086 1094 815 981 1220 1430
0 0 0 2 4 4 9 5 9 8 9 5 10 10 10 528 1487 1833 1959 2141 2040 1868 1648 1134 782 616 970 875 432 762 993 1477
0 0 1 5 4 5 7 8 9 9 11 5 6 10 11 9 1040 1259 1676 1922 1723 1481 1332 917 786 706 234 256 436 269 661 930
0 0 2 4 5 5 8 7 11 10 9 8 6 7 8 7 8 41 1316 1504 1409 1167 903 1023 858 626 600 113 45 205 431 606
0 1 2 6 6 8 8 3 8 13 7 7 5 8 9 7 6 6 361 989 831 767 835 815 862 729 633 392 34 25 359 635
4 3 6 6 6 6 7 21 9 14 8 6 3 8 11 13 6 10 4 2 363 514 572 622 454 482 573 651 334 228 276 374
4 6 7 6 7 6 7 9 14 10 6 4 2 4 6 10 6 4 5 7 1 3 27 14 47 56 84 176 156 57 80 61
4 5 7 6 6 5 9 7 11 10 6 5 6 9 3 4 4 5 1 2 1 2 2 2 0 0 0 1 0 0 0 0
9 5 4 8 10 3 9 8 8 8 9 6 6 5 3 0 5 3 2 2 0 0 1 2 3 1 0 1 0 0 0 0
13 11 14 13 16 9 9 9 5 6 9 9 6 5 4 1 2 4 5 2 0 0 0 1 2 2 1 0 0 1 2 1

GFSFLT1_con_sbcape_111.txt.gz
CAPE
0 0 0 0 0 0 0 0 0 0 0 0 0 0 0 0 0 0 880 1559 1738 1342 1278 1457 1349 1234 1006 1139 1426 1129 1307 1125
0 0 0 0 0 0 0 0 0 0 0 0 0 0 0 0 0 0 0 283 1421 1564 1459 1406 1541 1529 1313 1078 1194 1268 891 871
0 0 0 0 0 0 0 0 0 0 0 0 0 0 0 0 0 0 0 0 0 1247 1589 1535 1656 1467 1223 991 1084 895 704 817
0 0 0 0 0 0 0 0 0 0 0 0 0 0 0 0 0 0 0 0 0 0 1121 1495 1618 1374 1264 988 629 633 366 633
0 0 0 0 0 0 0 0 0 0 0 0 0 0 0 0 0 0 0 0 0 0 15 910 1387 1269 1025 532 0 0 0 241
0 0 0 0 0 0 0 0 0 0 0 0 0 0 0 0 0 0 0 0 0 0 0 132 733 1066 832 22 0 37 233 421
0 0 0 0 0 0 0 0 0 0 0 0 0 0 0 1 1 2 2 0 0 0 0 4 611 699 768 432 168 328 459 462
0 0 0 0 0 0 0 0 0 0 0 1 0 0 1 2 4 5 7 7 3 1 1 0 237 577 586 507 666 689 637 571
0 0 0 0 0 0 0 0 0 0 2 2 0 0 5 5 9 11 10 8 8 1 3 1 9 411 711 684 700 393 277 624
0 0 0 0 0 0 0 0 0 0 3 4 2 4 7 7 6 11 14 15 13 7 1 1 0 0 28 474 546 282 130 1
0 0 0 0 0 0 0 0 6 1 3 3 7 7 9 8 9 12 12 12 13 5 2 0 22 0 19 468 611 464 404 178
0 0 0 0 0 0 0 0 2 1 2 5 5 5 7 8 11 11 8 10 10 7 2 123 406 475 393 444 572 421 373 221
0 0 0 0 0 0 2 1 4 5 3 4 6 6 7 7 11 10 9 8 7 6 6 6 473 391 376 505 480 454 381 473
0 0 0 0 0 2 4 3 5 4 5 5 5 6 7 6 7 8 7 6 6 5 5 3 4 306 457 732 607 720 675 566
0 0 1 2 2 4 5 3 4 4 4 7 5 7 8 7 6 6 6 5 5 5 4 5 4 2 2 2 288 264 22 8
0 1 3 5 3 5 4 4 3 3 4 6 4 5 9 6 4 4 4 3 4 6 5 2 4 4 4 2 2 5 0 0
0 2 4 5 5 9 4 6 5 3 4 7 8 3 8 8 4 3 2 2 3 3 4 3 2 6 1 1 0 1 0 0
6 9 7 6 5 12 5 8 5 4 4 5 7 6 7 5 4 0 2 1 2 1 1 2 2 1 3 1 1 3 3 1
4 2 4 3 7 4 8 9 4 3 3 3 6 3 3 5 4 6 5 1 0 0 0 0 1 3 5 2 0 0 1 1

GFSFLT1_con_sbcape_114.txt.gz
CAPE
0 0 0 0 0 0 0 0 0 0 0 0 0 0 0 0 0 0 0 0 0 463 942 1046 725 484 699 899 1297 1075 1005 966
0 0 0 0 0 0 0 0 0 0 0 0 0 0 0 0 0 0 0 0 0 0 134 918 748 842 883 650 723 656 647 723
0 0 0 0 0 0 0 0 0 0 0 0 0 0 0 0 0 0 0 0 0 0 0 0 854 996 764 438 730 712 774 492
0 0 0 0 0 0 0 0 0 0 0 0 0 0 0 0 0 0 0 0 0 0 0 0 0 387 1143 1000 416 613 562 246
0 0 0 0 0 0 0 0 0 0 0 0 0 0 0 0 0 0 0 0 0 0 0 0 0 0 222 948 442 432 84 0
0 0 0 0 0 0 0 0 0 0 0 0 0 0 0 0 0 0 0 0 0 0 0 0 0 0 0 695 334 0 0 0
0 0 0 0 0 0 0 0 0 0 0 0 1 0 0 1 1 2 2 3 0 0 1 1 2 2 0 253 341 25 0 0
0 0 0 0 0 0 0 0 0 0 0 0 0 0 3 5 5 6 6 4 4 5 5 7 2 2 3 26 19 0 0 0
0 0 0 0 0 0 0 0 0 0 0 0 1 1 5 6 6 6 6 7 8 9 7 11 9 4 3 4 216 56 0 102
0 0 0 0 0 0 0 0 0 0 0 1 4 5 5 6 5 9 10 8 8 8 6 8 5 6 2 4 87 132 225 271
1 0 0 0 0 0 0 0 2 3 2 3 5 3 6 7 8 10 10 8 8 6 6 8 8 9 0 0 0 240 235 138
0 0 1 0 0 0 0 0 1 2 2 1 0 0 2 7 9 9 9 9 9 9 8 10 9 6 1 0 0 66 227 194
0 0 0 0 0 2 1 0 1 2 4 2 0 0 0 4 8 7 8 8 9 9 9 10 8 4 2 24 0 38 125 154
0 0 0 1 2 4 3 0 1 2 6 1 2 3 0 0 4 6 5 7 7 6 8 10 8 6 3 4 20 94 121 114
1 0 0 1 3 4 3 2 1 2 4 6 8 2 5 2 6 5 5 6 6 5 7 9 9 6 4 4 1 0 49 150
0 3 0 4 4 2 3 0 4 0 5 6 6 7 9 7 8 6 4 4 4 4 4 5 5 8 6 3 1 1 0 15
5 2 0 0 1 2 0 0 3 1 1 6 2 2 3 7 8 8 7 5 4 3 2 4 4 6 6 5 0 1 1 4
4 6 6 6 6 8 6 1 1 1 2 2 4 2 2 2 4 4 4 1 0 2 3 3 2 3 9 5 2 1 1 0
4 3 5 6 7 8 3 1 3 0 0 1 4 2 3 2 2 2 0 1 0 0 0 0 1 6 13 5 2 0 0 0

GFSFLT1_con_sbcape_117.txt.gz
CAPE
0 0 0 0 0 0 0 0 0 0 0 0 0 0 0 0 0 0 0 0 0 0 0 4 327 370 583 534 856 926 839 838
0 0 0 0 0 0 0 0 0 0 0 0 0 0 0 0 0 0 0 0 0 0 0 0 0 81 433 284 395 442 531 429
0 0 0 0 0 0 0 0 0 0 0 0 0 0 0 0 0 0 0 0 0 0 0 0 0 0 0 418 437 481 277 315
0 0 0 0 0 0 0 0 0 0 0 0 0 0 0 0 0 0 0 0 0 0 0 0 0 0 0 0 339 626 624 134
0 0 0 0 0 0 0 0 0 0 0 0 0 0 0 0 0 0 0 0 0 0 0 0 1 1 1 0 0 364 560 88
1 2 0 0 0 0 0 0 0 0 0 0 0 0 2 1 0 0 0 1 0 0 1 1 0 0 0 2 0 1 404 443
5 6 2 0 0 0 0 0 0 0 0 0 0 0 0 2 1 4 4 2 3 4 6 6 6 6 5 2 2 12 141 55
7 4 2 1 0 0 0 0 0 0 0 0 0 1 1 2 4 5 5 5 6 7 7 7 7 9 10 8 6 10 35 48
5 4 1 0 0 0 0 0 0 0 0 2 1 2 4 4 4 6 8 9 8 8 9 9 7 10 9 9 7 3 13 47
2 2 1 2 2 0 0 1 1 2 3 4 4 5 5 5 4 7 9 9 6 7 8 10 7 7 7 7 12 5 1 29
3 2 1 2 2 1 0 1 3 3 2 4 5 6 6 7 10 9 9 8 9 8 6 6 6 7 9 12 11 3 3 45
0 0 0 0 3 2 1 3 1 1 5 3 7 9 8 1 9 9 8 8 8 7 6 8 8 5 6 5 3 7 0 3
1 0 0 1 3 0 0 0 0 3 6 7 7 7 8 6 2 8 8 7 8 7 8 7 8 6 7 6 4 3 3 1
0 0 1 2 3 2 0 0 0 3 5 5 7 9 8 8 2 2 9 7 7 6 7 9 8 9 8 7 6 3 2 4
0 1 1 1 1 0 2 1 0 4 5 7 7 5 8 9 6 7 6 5 5 6 8 9 8 10 8 9 7 6 6 5
1 1 2 2 3 2 2 1 5 4 4 5 6 6 1 5 6 3 1 1 3 3 4 5 5 7 8 9 8 8 8 2
2 1 3 4 5 2 4 6 5 4 7 7 4 5 3 5 4 1 0 0 0 1 2 3 3 8 13 13 11 7 5 4
1 0 3 5 7 10 6 8 1 0 0 1 0 0 0 0 1 1 2 1 0 0 0 0 1 4 15 15 10 6 5 3
0 2 0 0 1 13 6 12 6 0 0 1 1 0 0 0 0 0 0 0 0 0 0 0 0 3 19 15 7 0 1 1

GFSFLT1_con_sbcape_120.txt.gz
CAPE
0 0 0 0 0 0 0 0 0 0 0 0 0 0 0 0 0 0 0 0 0 0 0 0 0 1 164 411 322 461 542 649
0 0 0 0 0 0 0 0 0 0 0 0 0 0 0 0 0 0 0 0 0 0 0 0 0 0 0 1 286 0 0 163
0 0 0 0 0 0 0 0 0 0 0 0 0 0 0 0 0 0 0 0 0 0 0 0 0 1 0 0 0 359 182 220
0 0 0 0 0 0 0 0 0 0 0 0 0 0 0 0 0 0 0 0 0 0 0 0 0 1 1 1 0 0 340 141
2 1 1 0 3 0 0 1 0 0 0 0 0 0 0 0 0 0 0 0 0 0 3 3 4 4 4 1 2 1 5 96
9 8 3 1 0 0 1 1 2 0 0 0 0 0 0 0 0 0 0 0 1 0 5 5 5 6 5 4 1 1 2 6
5 2 2 4 1 0 2 0 0 0 0 1 1 1 1 2 2 2 2 3 1 6 5 5 5 6 6 8 10 6 5 3
4 3 1 0 0 1 2 1 0 2 1 1 0 1 1 3 3 4 5 6 6 6 6 6 5 7 6 8 8 9 8 6
3 3 2 2 0 0 0 0 1 1 2 2 4 5 5 3 4 5 6 7 7 6 6 6 7 6 8 8 9 8 10 8
0 3 3 5 3 2 0 1 2 2 5 6 6 1 6 6 5 5 7 5 4 4 7 7 7 7 8 8 11 11 7 12
1 1 3 2 4 4 2 3 3 3 5 7 6 7 7 6 6 6 6 5 7 7 7 7 9 7 8 9 9 7 8 7
1 1 0 2 1 3 3 3 2 4 5 6 9 7 8 8 10 9 8 6 6 7 7 9 7 7 10 8 7 5 6 2
0 0 0 0 0 2 1 4 3 4 7 5 6 6 8 6 6 7 6 6 7 6 7 9 8 9 9 7 6 5 4 4
0 0 0 1 3 3 3 3 4 4 6 6 4 8 7 7 7 2 2 6 7 6 6 9 12 11 9 6 6 10 9 10
0 0 1 2 2 2 2 6 6 5 5 5 6 6 6 6 6 7 8 8 6 5 6 9 15 11 9 6 9 8 8 7
0 0 1 1 1 0 4 3 2 1 1 0 1 3 2 3 4 2 4 4 6 5 6 4 7 9 13 8 6 8 7 6
0 1 1 3 5 6 4 1 0 0 0 0 0 0 0 0 0 0 0 0 1 4 5 4 4 10 21 12 6 6 5 5
1 1 1 5 6 5 8 2 2 1 1 1 0 0 0 0 0 0 0 0 0 2 4 5 4 6 17 7 6 3 4 4
1 0 1 1 0 5 3 1 1 0 1 2 2 1 0 0 0 0 0 0 0 0 2 2 3 4 14 6 4 0 0 1

GFSFLT1_con_sbcape_123.txt.gz
CAPE
0 0 0 0 0 0 0 0 0 0 0 0 0 0 0 0 0 0 0 0 0 0 0 0 0 0 0 124 246 791 1096 1237
0 0 0 0 0 0 0 0 0 0 0 0 0 0 0 0 0 0 0 0 0 0 0 0 0 0 0 0 0 86 613 605
0 0 0 0 0 0 0 0 0 0 0 1 2 1 0 0 0 0 0 2 3 1 4 5 5 4 2 0 0 0 439 290
1 0 0 0 0 0 0 0 0 0 0 0 0 0 0 0 0 0 1 4 5 8 4 1 1 4 3 1 6 7 5 224
1 0 0 0 0 0 0 0 1 2 1 0 0 0 1 6 5 4 4 5 9 2 4 6 7 10 8 7 7 2 7 12
2 0 0 0 0 0 0 0 1 1 4 5 4 0 0 4 8 7 5 7 3 5 7 7 7 9 9 8 10 12 14 5
3 2 2 3 3 0 0 0 0 0 1 3 4 5 2 4 5 5 3 4 5 2 6 6 6 8 9 10 8 7 13 19
7 7 6 7 6 5 7 2 2 2 4 1 4 4 5 6 6 7 9 5 6 7 5 5 5 6 8 10 11 9 10 13
4 3 2 3 3 5 3 3 5 3 7 5 4 9 8 5 5 6 7 8 7 5 5 4 4 4 9 6 12 13 13 17
5 4 3 3 4 4 5 5 4 4 6 6 4 4 7 9 7 8 9 8 6 6 5 4 4 5 5 7 8 10 11 8
3 3 5 6 5 5 4 6 7 6 8 7 9 9 8 9 8 7 8 6 6 5 7 7 7 5 5 5 6 6 8 10
1 1 2 6 4 4 7 8 9 7 7 9 6 5 7 8 8 8 8 7 7 7 9 11 12 10 9 8 7 8 9 11
0 0 1 2 2 6 7 7 8 8 9 8 9 8 9 6 7 7 7 7 5 4 7 14 16 16 16 10 11 10 9 9
0 1 2 3 7 7 7 7 7 8 6 6 6 7 6 6 4 6 5 6 4 2 5 14 20 18 16 12 7 6 6 7
0 2 4 4 5 7 6 6 5 3 2 1 1 2 3 4 4 3 4 6 6 2 5 10 18 16 16 15 12 9 7 6
0 2 5 6 1 1 3 4 2 1 0 0 0 0 0 0 1 2 3 5 5 5 4 7 13 14 16 17 10 10 8 6
2 2 1 4 3 1 4 4 1 0 0 0 0 0 0 0 1 1 1 3 4 4 5 5 12 10 9 8 9 8 9 11
2 2 6 6 8 5 5 2 0 0 0 0 0 1 1 1 1 1 2 5 7 9 8 9 12 16 6 4 5 11 10 15
5 5 4 8 7 11 10 1 0 0 1 1 0 1 1 1 1 2 5 6 8 11 16 8 13 21 4 1 3 15 21 16

GFSFLT1_con_sbcape_126.txt.gz
CAPE
0 0 0 0 0 0 0 0 0 0 0 0 0 0 0 0 0 0 0 2 2 0 0 0 2 1 82 140 251 486 844 1270
0 0 0 0 0 0 0 0 0 0 0 0 0 0 0 0 0 0 0 3 7 5 3 2 1 0 3 8 8 195 879 1203
0 0 0 0 0 0 0 0 0 0 0 0 0 0 0 0 0 1 4 5 7 8 12 6 3 6 11 9 10 6 12 747
0 0 0 0 0 0 0 0 0 0 0 0 0 0 0 0 0 0 2 7 11 3 9 9 10 8 7 1 2 15 10 8
0 1 2 2 1 1 1 0 0 0 2 0 1 0 0 0 0 0 1 5 6 6 9 11 14 11 13 12 11 15 14 14
5 6 5 7 3 2 4 5 3 4 6 4 2 1 1 1 1 1 0 2 6 6 10 7 14 10 10 12 10 7 12 20
5 5 4 5 7 8 5 5 4 7 4 6 11 9 6 4 3 2 0 3 6 7 9 8 11 12 10 12 13 10 12 13
3 3 4 8 8 8 6 6 4 6 5 4 6 5 4 3 3 3 4 3 6 9 9 10 10 8 10 11 11 12 13 17
4 4 5 4 3 6 8 5 5 6 7 7 9 8 10 10 10 7 8 6 8 7 9 11 11 11 11 11 11 11 16 10
3 4 5 5 6 5 4 7 6 7 9 7 9 10 12 10 9 11 11 8 6 9 11 12 11 11 11 10 9 12 13 16
3 2 3 5 5 5 8 3 8 5 9 10 9 9 8 12 12 11 8 8 8 8 11 13 11 12 11 11 12 12 13 19
3 0 0 4 6 6 4 9 9 13 11 9 10 12 10 9 12 11 11 13 10 10 11 12 10 12 11 12 10 8 11 14
0 0 0 3 4 5 6 9 9 9 9 9 10 7 9 11 11 9 8 10 10 7 8 10 9 9 10 9 10 9 8 10
0 0 1 3 4 4 6 8 7 5 5 5 5 5 6 6 8 9 9 10 8 6 6 10 9 10 10 9 8 10 10 14
0 0 2 4 4 4 4 6 6 3 1 2 3 3 2 1 3 4 6 6 4 5 7 8 8 6 7 8 9 9 8 13
0 0 4 4 4 4 5 5 3 3 1 1 0 0 0 1 1 3 4 5 3 5 5 6 6 3 10 12 11 13 11 8
0 1 4 3 3 4 5 3 0 0 0 0 0 0 0 1 2 3 3 5 6 7 8 9 7 0 1 4 5 11 10 11
1 3 5 7 3 5 6 3 0 0 0 0 0 2 3 6 4 5 8 9 9 13 12 12 11 6 2 3 2 11 11 15
5 8 5 3 3 7 4 1 0 1 0 0 1 2 4 5 5 7 10 16 14 16 12 13 13 21 2 2 0 13 29 17

GFSFLT1_con_sbcape_129.txt.gz
CAPE
0 0 0 0 0 0 0 0 0 0 0 0 0 0 0 0 0 0 0 0 1 0 0 1 1 1 2 122 582 668 603 650
0 0 0 0 0 0 0 0 0 0 0 0 0 0 0 0 0 0 0 1 7 5 3 3 2 1 4 6 11 15 24 613
0 0 1 3 2 0 0 0 0 0 0 0 0 0 0 0 0 0 0 2 4 2 7 7 8 6 7 11 11 12 1 2
0 1 7 8 6 7 5 4 2 0 0 0 0 0 0 0 0 0 0 4 5 7 6 5 3 10 9 7 11 10 14 5
0 2 3 2 4 4 3 4 2 2 3 2 1 0 0 4 1 1 1 2 6 7 6 6 5 5 8 9 13 12 10 9
0 3 1 2 4 6 5 5 5 5 3 5 1 2 2 2 2 6 4 4 2 3 7 5 6 7 9 10 12 10 11 11
2 1 0 4 3 3 3 2 3 6 7 6 6 7 5 3 5 5 9 6 8 6 4 7 5 9 12 12 10 10 11 13
2 3 3 2 2 3 1 2 3 5 6 6 7 7 9 6 5 5 7 11 11 16 14 7 5 7 9 10 8 7 11 16
4 2 1 1 1 2 4 3 4 5 5 6 5 8 7 9 7 8 9 11 11 12 11 12 7 8 6 8 7 14 15 16
5 2 1 0 0 4 6 5 4 4 3 5 5 3 5 7 7 10 8 8 8 11 10 9 6 7 9 10 12 14 8 12
4 1 0 0 1 2 5 4 4 5 3 3 6 7 8 4 6 7 10 9 9 9 7 7 11 10 8 9 10 10 9 12
5 2 0 0 1 3 4 4 5 2 3 2 4 5 7 7 7 9 12 9 6 7 8 11 13 11 12 9 8 7 7 9
4 1 0 0 0 2 3 4 2 3 4 3 6 5 4 6 7 7 9 12 4 3 6 11 10 9 8 12 9 8 7 7
2 0 0 0 1 2 3 4 3 5 5 5 6 4 3 2 2 4 4 3 3 3 4 5 5 7 6 8 10 10 8 9
1 0 0 0 1 3 5 3 3 4 2 2 2 0 0 0 1 2 3 2 2 2 6 4 3 3 8 5 6 6 9 9
1 0 0 1 2 4 4 3 5 4 3 3 1 0 0 1 2 3 4 5 5 3 5 4 1 0 4 4 4 7 8 7
1 0 0 1 2 3 4 3 1 0 0 0 0 1 0 2 3 3 3 4 5 5 6 4 1 0 3 4 5 8 10 7
1 0 1 2 4 4 4 3 0 0 0 0 0 2 2 4 4 5 8 8 9 11 10 8 4 1 1 1 3 12 11 10
1 3 2 4 3 3 4 2 0 0 0 0 0 2 3 5 6 9 13 16 18 16 11 10 10 9 1 1 0 12 23 14

GFSFLT1_con_sbcape_132.txt.gz
CAPE
0 0 0 0 0 0 0 0 0 0 0 0 0 0 0 0 0 0 0 0 0 0 0 0 0 0 0 0 0 0 0 0
0 0 0 0 0 0 0 0 0 0 0 0 0 0 0 0 0 0 0 0 0 0 0 0 0 0 0 0 0 0 0 0
0 0 0 0 0 0 0 0 0 0 0 0 0 0 2 0 0 0 0 0 1 0 2 2 1 3 2 1 5 1 2 0
0 0 0 0 0 0 0 0 0 0 0 0 0 0 0 0 0 0 0 0 2 0 3 1 0 2 3 1 1 2 0 0
0 0 0 0 1 4 0 3 0 0 0 0 0 0 0 0 0 0 0 1 0 0 1 4 0 0 1 2 4 2 10 2
0 0 0 0 0 1 3 3 0 2 4 2 1 1 0 0 0 0 0 0 0 1 1 5 3 1 0 6 5 7 9 12
0 0 0 0 0 0 0 0 0 1 3 4 4 4 2 3 1 2 4 4 4 3 2 3 5 4 4 0 6 2 5 9
0 0 0 0 0 0 0 0 0 0 2 1 1 1 3 2 4 3 1 5 1 8 9 8 5 6 4 0 3 6 5 5
0 0 0 0 0 0 0 0 0 1 2 0 1 1 1 6 3 4 2 3 4 6 10 8 8 9 8 8 9 8 1 8
0 0 0 0 0 0 0 0 0 1 1 1 1 3 1 5 7 5 6 8 5 4 9 11 10 12 9 11 12 7 5 3
0 0 0 0 0 0 1 1 1 1 2 1 3 1 1 5 6 6 7 5 5 3 1 11 6 3 6 3 6 6 5 6
0 0 0 0 0 0 1 2 1 1 2 1 2 2 1 2 4 3 7 5 5 5 7 8 5 1 2 7 7 8 9 8
0 0 0 0 0 0 0 1 1 1 0 0 1 1 3 4 4 4 3 3 0 2 4 1 2 0 0 3 10 11 14 13
0 0 0 0 0 0 0 1 1 1 2 3 2 1 0 0 0 1 0 0 0 3 0 0 0 1 0 0 6 8 9 9
0 0 0 0 0 0 1 3 1 2 2 0 2 0 0 0 1 0 0 0 0 0 0 0 0 0 0 0 7 7 8 9
0 0 0 0 0 0 1 3 2 2 2 2 1 0 0 1 1 1 1 0 0 0 1 0 0 0 3 1 4 0 0 0
0 0 0 0 0 1 2 2 0 0 0 0 0 0 0 0 2 2 1 1 0 0 2 0 1 0 1 1 7 2 3 0
0 0 0 0 0 1 3 1 0 0 0 0 0 1 1 0 2 3 3 2 2 1 0 6 1 1 0 1 6 3 3 1
0 0 0 0 0 0 5 1 0 0 0 0 0 1 3 2 2 2 4 3 0 0 0 0 2 3 1 0 0 1 7 0

GFSFLT1_con_sbcape_138.txt.gz
CAPE
0 0 0 0 0 0 0 0 0 0 0 0 0 0 0 0 0 0 0 0 0 0 0 0 0 0 0 0 0 0 0 0
0 0 0 0 0 0 0 0 0 0 0 0 0 0 0 0 0 0 0 0 0 0 0 0 0 0 0 0 0 0 0 0
0 0 0 0 0 0 0 0 0 0 0 0 0 0 0 0 0 0 0 0 0 0 0 0 0 0 0 0 0 1 0 0
0 0 0 0 0 0 0 0 0 0 0 0 0 0 0 0 0 0 0 0 0 0 0 0 0 2 2 0 1 1 4 1
0 0 0 0 0 0 0 0 0 0 0 0 0 0 0 0 0 0 0 0 0 0 0 0 0 1 2 1 1 0 1 3
0 0 0 0 0 0 0 0 0 0 0 0 0 0 0 0 0 0 0 0 0 0 0 0 0 2 0 0 0 1 8 12
0 0 0 0 0 0 0 0 0 0 0 0 0 0 0 0 0 0 0 0 0 0 0 0 1 2 1 4 4 0 2 2
0 0 0 0 0 0 0 0 0 0 0 0 0 0 0 0 0 0 0 0 0 0 0 0 0 2 2 4 2 3 2 6
0 0 0 0 0 0 0 0 0 0 0 0 0 0 0 0 0 0 0 0 0 0 0 0 0 0 3 5 5 5 4 4
0 0 0 0 0 0 0 0 0 0 0 0 0 0 0 0 0 0 0 0 1 0 0 0 0 0 1 9 9 10 11 7
0 0 0 0 0 0 0 0 0 0 0 0 0 0 0 0 0 0 0 0 0 0 0 0 0 0 0 8 10 9 18 7
0 0 0 0 0 0 0 0 0 0 0 0 0 0 0 0 0 0 0 0 0 0 0 0 0 0 0 0 4 2 5 4
0 0 0 0 0 0 0 0 0 0 0 0 0 0 0 0 0 0 0 0 0 0 0 0 0 0 0 0 0 0 1 5
0 0 0 0 0 0 0 0 0 0 0 0 0 0 0 0 0 0 0 0 0 0 0 0 0 0 0 0 0 0 2 1
0 0 0 0 0 0 0 0 0 0 0 0 0 0 0 0 0 0 0 0 0 0 0 0 0 0 0 0 0 0 0 1
0 0 0 0 0 0 0 0 0 0 0 0 0 0 0 0 0 0 0 0 0 0 0 0 0 6 2 0 0 0 0 0
0 0 0 0 0 0 0 0 0 0 0 0 0 0 0 0 0 0 0 0 0 0 0 0 0 2 12 6 1 0 0 0
0 0 0 0 0 0 0 0 0 0 0 0 0 0 0 0 0 0 0 0 0 0 0 0 0 2 2 6 0 0 0 0
0 0 0 0 0 0 0 0 0 0 0 0 0 0 0 0 0 0 0 0 0 0 0 0 0 3 6 1 0 0 0 0